Terminal Aerodrome Forecast
Issued by NWS

Current Version | Previous Version | Text Only | Print | Product List | Glossary On
Versions: 1 2 3 4 5 6 7 8 9 10 11 12 13 14 15 16 17 18 19 20 21 22 23 24 25 26 27 28 29 30 31 32 33 34 35 36 37 38 39 40 41 42 43 44 45 46 47 48 49 50
000
FTUS41 KCTP 210844 AAB
TAFJST
TAF AMD
KJST 210844Z 2109/2206 18008KT P6SM SCT025
     FM211400 24010KT P6SM VCSH OVC040
     FM211800 28010KT P6SM BKN035
     FM220300 29008KT P6SM BKN020=

USA.gov is the U.S. government's official web portal to all federal, state and local government web resources and services.